This is the latest recevied weather packets stored in our database for station/object RV1CJ-14. If no packets are shown the sender has not sent any weather packets the latest 10 day(s).
| Time | Temp. | Humidity | Pressure | Rain* | Wind** | Luminosity | Snow |
|---|---|---|---|---|---|---|---|
| 1777476003 | 5° C | 61% | 1018.9 hPa | 0 mm | - | 44 W/m² | - |
| 1777475403 | 5° C | 62% | 1019 hPa | 0 mm | - | 58 W/m² | - |
| 1777474803 | 5° C | 63% | 1018.9 hPa | 0 mm | - | 67 W/m² | - |
| 1777474203 | 5° C | 64% | 1018.8 hPa | 0 mm | - | 67 W/m² | - |
| 1777473603 | 5° C | 63% | 1018.8 hPa | 0 mm | - | 51 W/m² | - |
| 1777473003 | 5° C | 58% | 1018.9 hPa | 0 mm | - | 54 W/m² | - |
| 1777472403 | 5° C | 58% | 1018.8 hPa | 0 mm | - | 63 W/m² | - |
| 1777471803 | 5° C | 57% | 1018.9 hPa | 0 mm | - | 58 W/m² | - |
| 1777471203 | 5.56° C | 58% | 1018.9 hPa | 0 mm | - | 63 W/m² | - |
| 1777470603 | 5.56° C | 58% | 1018.8 hPa | 0 mm | - | 77 W/m² | - |
| 1777470003 | 5° C | 60% | 1018.8 hPa | 0 mm | - | 76 W/m² | - |
| 1777469403 | 5° C | 61% | 1019 hPa | 0 mm | - | 95 W/m² | - |
| 1777468803 | 5° C | 58% | 1018.9 hPa | 0 mm | - | 83 W/m² | - |
| 1777468203 | 5° C | 59% | 1018.9 hPa | 0 mm | - | 56 W/m² | - |
| 1777467604 | 5° C | 58% | 1018.9 hPa | 0 mm | - | 58 W/m² | - |
| 1777467003 | 5° C | 59% | 1018.9 hPa | 0 mm | - | 54 W/m² | - |
| 1777466404 | 5° C | 58% | 1018.8 hPa | 0 mm | - | 63 W/m² | - |
| 1777465803 | 5° C | 58% | 1018.7 hPa | 0 mm | - | 105 W/m² | - |
| 1777465203 | 5° C | 58% | 1018.7 hPa | 0 mm | - | 95 W/m² | - |
| 1777464739 | 5° C | 59% | 1018.8 hPa | 0 mm | - | 79 W/m² | - |
| 1777464004 | 5° C | 60% | 1018.8 hPa | 0 mm | - | 65 W/m² | - |
| 1777463403 | 5° C | 60% | 1018.7 hPa | 0 mm | - | 72 W/m² | - |
| 1777462803 | 5° C | 61% | 1018.7 hPa | 0 mm | - | 90 W/m² | - |
| 1777462204 | 5° C | 62% | 1018.8 hPa | 0 mm | - | 86 W/m² | - |
| 1777461603 | 5° C | 63% | 1018.7 hPa | 0 mm | - | 81 W/m² | - |
* Rain latest hour (hover to see other rain measurements)
** Current wind speed in m/s (hover to see current wind gust speed)